Date,TemperatureHighF,TemperatureAvgF,TemperatureLowF,DewpointHighF,DewpointAvgF,DewpointLowF,HumidityHigh,HumidityAvg,HumidityLow,PressureMaxIn,PressureMinIn,WindSpeedMaxMPH,WindSpeedAvgMPH,GustSpeedMaxMPH,PrecipitationSumIn
2013-2-1,67,51,45,36,27,-100,66,44,26,27.46,27.40,4,2,7,0.00
2013-2-2,64,52,45,39,33,29,68,50,27,27.52,27.43,3,2,6,0.00
2013-2-3,64,48,41,38,24,-100,74,46,26,27.43,27.34,5,2,8,0.00
2013-2-4,65,29,42,38,-21,-100,69,31,28,27.40,27.32,4,2,7,0.00
2013-2-5,58,45,38,38,28,-100,90,60,44,27.34,27.26,4,2,8,0.00
2013-2-6,60,44,35,36,29,22,96,59,27,27.37,27.32,4,2,7,0.00
2013-2-7,41,38,34,39,33,30,97,83,67,27.34,27.17,5,2,11,0.13
2013-2-8,49,37,29,34,24,16,99,64,32,27.17,27.14,4,2,9,0.17
2013-2-9,54,39,30,24,20,15,62,47,29,27.29,27.17,5,2,9,0.00
2013-2-10,57,43,34,28,20,14,58,41,26,27.32,27.23,6,2,11,0.00
2013-2-11,60,43,33,25,20,14,56,40,25,27.43,27.32,4,2,8,0.00
2013-2-12,58,43,34,31,27,20,75,54,34,27.55,27.43,4,2,8,0.00
2013-2-13,49,42,37,36,30,27,78,63,44,27.52,27.43,3,2,6,0.00
2013-2-14,72,55,45,37,28,20,56,37,22,27.46,27.43,4,2,9,0.00
2013-2-15,71,54,44,36,28,20,58,38,22,27.52,27.46,4,2,6,0.00
2013-2-16,69,54,46,34,28,22,62,39,23,27.49,27.29,3,2,8,0.00
2013-2-17,67,50,41,36,31,26,68,50,27,27.32,27.20,4,2,7,0.00
2013-2-18,62,47,38,35,31,26,74,56,34,27.23,27.11,6,2,11,0.00
2013-2-19,38,34,28,33,30,25,97,87,74,27.14,26.96,6,2,14,0.00
2013-2-20,50,36,27,36,29,25,99,79,44,27.23,27.02,3,-16,6,0.78
2013-2-21,56,40,31,31,27,20,94,62,27,27.34,27.23,5,2,10,0.00
2013-2-22,60,44,34,31,27,22,68,53,31,27.43,27.34,4,2,8,0.00
2013-2-23,56,43,33,37,26,13,87,54,31,27.40,27.32,6,2,12,0.00
2013-2-24,62,44,31,24,20,14,53,39,19,27.43,27.37,4,2,6,0.00
2013-2-25,62,45,36,31,24,19,60,45,26,27.46,27.40,4,2,8,0.00
2013-2-26,64,47,35,26,18,13,60,34,18,27.43,27.37,5,2,10,0.00
2013-2-27,67,50,40,28,21,12,48,33,22,27.58,27.43,4,2,6,0.00
2013-2-28,69,52,42,36,30,24,68,44,24,27.64,27.55,4,2,9,0.00